User: anonymous   Login
Location: Unspecified
(0.0000°N, 0.0000°E)
Time: 05:44:47
(UTC+00:00)
Language:

FAISAT - Orbit

View from above orbital plane
View from above orbital plane
View from above satellite
View from above satellite

Ground track
Ground track

The orbit data is extracted from the following two-line orbital elements,

1 23465U 95002C   18343.83787353  .00000032  00000-0  18867-4 0  9998
2 23465  82.9287 251.5019 0036414 225.5458 199.0335 13.71885675195534
Epoch (UTC): 09 December 2018 20:06:32
Eccentricity: 0.0036414
inclination: 82.9287°
perigee height: 966 km
apogee height: 1019 km
right ascension of ascending node: 251.5019°
argument of perigee: 225.5458°
revolutions per day: 13.71885675
mean anomaly at epoch: 199.0335°
orbit number at epoch: 19553

The dashed part of the orbit path shows where the satellite is in the earth's shadow,  

DLR